This is the latest recevied weather packets stored in our database for station/object KF0FSA. If no packets are shown the sender has not sent any weather packets the latest 10 day(s).
| Time | Temp. | Humidity | Pressure | Rain* | Wind** | Luminosity | Snow |
|---|---|---|---|---|---|---|---|
| 1777913400 | 17.22° C | 31% | 950.8 hPa | 0 mm | - | 808 W/m² | - |
| 1777913101 | 17.22° C | 34% | 950.7 hPa | 0 mm | - | 833 W/m² | - |
| 1777912797 | 17.22° C | 34% | 950.8 hPa | 0 mm | - | 829 W/m² | - |
| 1777912498 | 17.22° C | 34% | 950.8 hPa | 0 mm | - | 654 W/m² | - |
| 1777912198 | 17.22° C | 34% | 950.7 hPa | 0 mm | - | 850 W/m² | - |
| 1777911898 | 17.22° C | 35% | 950.5 hPa | 0 mm | - | 817 W/m² | - |
| 1777911598 | 17.22° C | 36% | 950.6 hPa | 0 mm | - | 770 W/m² | - |
| 1777911297 | 17.22° C | 37% | 950.6 hPa | 0 mm | - | 652 W/m² | - |
| 1777910998 | 17.22° C | 35% | 950.5 hPa | 0 mm | - | 801 W/m² | - |
| 1777910694 | 17.22° C | 36% | 950.3 hPa | 0 mm | - | 698 W/m² | - |
| 1777910516 | 17.22° C | 37% | 950.2 hPa | 0 mm | - | 770 W/m² | - |
| 1777910214 | 17.22° C | 36% | 950.1 hPa | 0 mm | - | 773 W/m² | - |
| 1777909788 | 17.22° C | 35% | 950.1 hPa | 0 mm | - | 747 W/m² | - |
| 1777909613 | 17.22° C | 36% | 950.1 hPa | 0 mm | - | 723 W/m² | - |
| 1777909310 | 17.22° C | 34% | 950.1 hPa | 0 mm | - | 710 W/m² | - |
| 1777908883 | 16.67° C | 35% | 949.9 hPa | 0 mm | - | 692 W/m² | - |
| 1777908584 | 16.67° C | 36% | 950 hPa | 0 mm | - | 644 W/m² | - |
| 1777908283 | 16.67° C | 37% | 949.9 hPa | 0 mm | - | 667 W/m² | - |
| 1777907980 | 16.67° C | 38% | 949.9 hPa | 0 mm | - | 656 W/m² | - |
| 1777907680 | 16.67° C | 38% | 949.9 hPa | 0 mm | - | 641 W/m² | - |
| 1777907380 | 16.67° C | 39% | 949.7 hPa | 0 mm | - | 629 W/m² | - |
| 1777907205 | 16.67° C | 39% | 949.8 hPa | 0 mm | - | 546 W/m² | - |
| 1777906780 | 16.11° C | 41% | 949.6 hPa | 0 mm | - | 538 W/m² | - |
| 1777906601 | 16.11° C | 40% | 949.7 hPa | 0 mm | - | 610 W/m² | - |
| 1777906175 | 16.11° C | 41% | 949.7 hPa | 0 mm | - | 303 W/m² | - |
* Rain latest hour (hover to see other rain measurements)
** Current wind speed in m/s (hover to see current wind gust speed)